Regional Weather Roundup
Issued by NWS

Home | Current Version | Previous Version | Text Only | Print | Product List | Glossary On
Versions: 1 2 3 4 5 6 7 8 9 10 11 12 13 14 15 16 17 18 19 20 21 22 23 24 25 26 27 28 29 30 31 32 33 34 35 36 37 38 39 40 41 42 43 44 45 46 47 48 49 50
000
ASUS43 KLSX 280259
RWRMO

WEATHER SUMMARY FOR MISSOURI
NATIONAL WEATHER SERVICE SPRINGFIELD MO
900 PM CST FRI FEB 27 2015

NOTE: "FAIR" INDICATES FEW OR NO CLOUDS BELOW 12,000 FEET WITH NO
       SIGNIFICANT WEATHER AND/OR OBSTRUCTIONS TO VISIBILITY.
       CURRENT SKY AND/OR WEATHER CONDITIONS ARE NOT AVAILABLE FOR
       CHILLICOTHE AND FARMINGTON.

MOZ001>031-035>038-043-044-053-054-280400-
...NORTHERN AND WESTERN MISSOURI...

CITY           SKY/WX    TMP DP  RH WIND       PRES   REMARKS
KANSAS CTY INT MOCLDY    16   2  54 E8        30.54F WCI   5
KANSAS C DTWN  CLOUDY    18   4  54 E9        30.57S WCI   7
LEE`S SUMMIT   CLOUDY    17   3  54 E8        30.56R WCI   7
ST JOSEPH      MOCLDY    16   4  59 S7        30.57S WCI   6
CHILLICOTHE      N/A     14   3  61 CALM      30.61S
KIRKSVILLE     PTCLDY    10   2  69 E6        30.61R WCI   0

$$
MOZ066>068-077>081-088>096-101>105-280400-
...SOUTHWEST MISSOURI...

CITY           SKY/WX    TMP DP  RH WIND       PRES   REMARKS
SPRINGFIELD    CLOUDY    19  11  70 S7        30.50S WCI  10
JOPLIN         FLURRIES  19  13  77 SE5       30.53S WCI  12

$$
MOZ032>034-039>042-045>050-055>058-069>072-280400-
...CENTRAL MISSOURI...

CITY           SKY/WX    TMP DP  RH WIND       PRES   REMARKS
COLUMBIA       CLOUDY    15   2  56 E10       30.59S WCI   2
JEFFERSON CITY CLOUDY    18   2  49 NE10      30.61S WCI   6
ROLLA          CLOUDY    19   2  47 NE6       30.53S WCI  11
SEDALIA        CLOUDY    20   5  52 E6        30.59R WCI  12
OSAGE BEACH    CLOUDY    19   3  49 NE3       30.56S

$$
MOZ051-052-059>065-280400-
...EAST CENTRAL MISSOURI...

CITY           SKY/WX    TMP DP  RH WIND       PRES   REMARKS
ST LOUIS INTL  MOCLDY    16   2  54 E7        30.66S WCI   6
SPIRIT OF STL  CLOUDY    16   0  49 E9        30.65R WCI   4
ST CHARLES     MOCLDY    13   1  59 NE8       30.67S WCI   2

$$
MOZ072>076-082>087-097>100-106>115-280400-
...SOUTH CENTRAL AND SOUTHEAST MISSOURI...

CITY           SKY/WX    TMP DP  RH WIND       PRES   REMARKS
CAPE GIRARDEAU CLOUDY    22  11  62 NE10      30.63F WCI  11
FARMINGTON     PTCLDY    18   9  68 E6        30.61R WCI   9
POPLAR BLUFF   CLOUDY    22   8  55 NE7       30.61F WCI  13
WEST PLAINS    CLOUDY    20   5  52 E7        30.52R WCI  11

$$


USA.gov is the U.S. government's official web portal to all federal, state and local government web resources and services.